Wind_Speed
15 15 15 14 12 11 10 9 9 8 7 6 5 4 3 2 2 2 2 2 2 3 3 4 4 5 5 6 6 7 8 8 9 9 9 10 10 11 11 11 12 12 13
17 17 16 15 14 13 12 11 10 10 8 7 7 6 5 5 4 3 3 3 3 4 4 4 5 5 6 6 7 7 8 9 10 10 10 10 11 12 12 12 13 13 14
18 18 18 18 17 16 15 13 12 12 11 9 9 8 7 7 6 5 4 4 4 5 5 5 5 6 7 7 8 8 9 10 10 11 11 11 12 13 13 14 14 14 15
20 20 20 19 19 18 17 16 15 14 13 12 10 10 9 9 8 7 6 6 6 6 6 6 6 7 8 8 9 9 10 10 11 11 12 12 13 14 14 15 15 15 16
22 22 21 21 20 20 19 18 17 16 15 14 13 12 11 10 10 9 9 8 8 7 7 7 8 8 9 10 10 11 11 12 12 13 13 14 14 15 16 16 16 16 17
23 23 22 22 22 21 20 20 19 18 18 16 15 14 13 12 11 11 10 10 10 9 9 9 9 10 10 11 11 12 13 14 14 15 15 15 16 16 17 17 17 18 18
24 24 24 24 23 23 22 22 21 20 20 18 17 16 15 15 14 13 12 12 11 11 11 11 11 11 12 12 13 14 15 15 16 16 17 17 18 18 18 19 19 19 20
26 25 25 25 25 24 24 23 22 22 21 20 19 18 17 16 16 16 15 14 14 13 13 13 13 13 13 14 15 15 16 16 17 17 18 18 19 19 20 20 21 21 22
28 27 26 26 25 25 25 24 23 23 22 22 21 20 19 18 17 17 17 16 16 15 15 15 15 14 15 15 16 16 17 17 18 18 19 19 20 21 21 22 23 23 23
29 28 27 27 26 27 27 26 25 24 24 24 23 22 21 20 19 18 18 18 18 18 17 17 17 17 16 16 17 17 18 18 19 19 20 21 21 22 23 24 24 25 25
30 30 30 29 28 28 28 27 27 26 26 26 25 24 23 22 22 21 20 20 19 19 19 19 19 19 18 18 18 19 19 19 20 21 22 23 23 24 25 25 25 26 26
31 32 32 31 30 30 29 29 28 28 27 27 26 26 25 25 25 24 23 23 21 21 21 21 21 21 20 20 20 20 20 21 22 22 23 24 25 26 26 27 27 27 28
32 33 33 33 32 31 30 30 30 29 29 29 28 28 27 27 27 26 26 25 24 24 23 22 23 22 22 22 22 22 23 23 24 24 25 26 27 27 27 28 28 28 29
32 33 33 33 33 32 32 31 31 30 30 30 30 30 29 29 28 28 28 27 26 26 25 25 25 25 25 24 24 24 25 26 26 26 27 28 28 28 29 29 29 30 29
34 34 34 34 33 33 33 32 32 31 31 31 31 31 30 30 30 30 30 30 29 28 27 27 27 27 27 27 26 26 26 28 28 28 28 28 29 29 30 30 30 30 30
36 36 35 35 34 34 35 34 34 34 33 32 31 31 31 31 31 31 31 31 31 30 30 29 28 28 28 29 28 28 28 28 29 28 29 29 29 29 30 31 31 31 32
38 38 37 37 36 36 37 37 35 36 35 34 33 32 32 32 32 33 33 33 33 32 32 32 31 31 30 30 30 30 30 29 29 30 30 30 30 30 31 32 32 33 33
39 39 39 39 39 38 38 38 38 37 37 36 35 34 33 33 34 33 34 34 34 34 34 34 34 34 34 33 32 32 31 31 31 31 31 31 32 32 32 33 33 34 34
40 40 40 40 40 40 39 38 38 39 38 37 37 37 36 35 34 34 34 35 35 35 36 36 36 36 36 35 35 34 33 33 33 32 32 33 33 34 34 34 34 34 35
42 41 42 43 43 42 41 40 40 41 39 38 39 39 37 37 36 36 36 37 37 37 37 38 38 37 37 37 37 36 35 35 35 34 34 35 35 35 35 35 35 35 36
44 44 44 44 45 45 44 42 41 41 41 41 40 38 39 39 39 39 39 38 38 38 39 39 38 38 38 38 38 37 37 37 37 36 36 36 36 36 36 36 36 36 37
45 45 45 46 46 47 45 44 43 43 43 42 41 41 40 40 40 40 41 41 40 39 38 39 39 39 39 38 38 39 38 38 38 38 38 37 37 37 37 37 37 38 39
46 46 46 46 47 47 47 46 45 44 44 44 43 43 43 42 41 42 42 42 41 41 40 39 39 39 39 39 40 40 40 39 38 38 38 39 38 38 38 38 37 39 40
44 46 46 46 47 47 47 48 47 45 44 44 45 45 44 44 44 43 42 42 42 43 42 40 40 40 40 40 40 40 40 40 39 39 39 39 39 39 39 39 40 40 41
43 44 46 47 48 48 48 48 48 47 45 45 46 46 46 45 44 44 44 44 43 42 42 42 41 40 40 41 41 40 40 40 40 40 40 39 39 40 40 41 41 41 41
44 45 46 48 48 48 48 48 47 48 49 47 47 46 46 45 44 44 43 44 43 42 42 42 41 39 39 39 39 39 39 41 40 40 39 40 39 40 41 42 42 41 41
Wind_Direction
239 238 236 235 234 233 232 231 232 232 232 234 236 240 246 251 262 285 306 317 321 320 322 325 331 337 340 339 342 344 342 341 341 339 336 334 334 334 334 332 330 328 327
239 238 236 236 236 236 235 234 234 236 238 239 240 242 246 250 258 273 287 293 296 300 305 310 317 323 325 326 330 333 333 333 332 332 331 330 330 330 330 329 327 325 324
240 238 236 236 237 237 238 238 237 239 240 241 243 245 247 249 253 261 275 278 282 288 292 298 307 312 315 319 322 323 326 327 326 325 326 326 327 327 326 325 324 324 322
239 239 238 237 237 238 238 239 240 241 242 243 244 247 250 249 252 256 263 268 276 282 287 292 300 306 310 314 315 317 320 322 321 320 320 320 322 322 322 322 322 321 320
241 241 240 239 239 239 239 241 242 242 242 243 244 247 250 250 252 256 260 264 271 277 282 288 294 299 304 308 310 312 315 316 316 315 315 316 317 317 318 318 318 317 317
243 242 241 241 240 241 240 241 242 243 243 243 244 246 250 250 252 256 259 263 265 270 278 285 289 294 298 302 305 307 310 312 312 311 313 313 313 313 314 315 314 314 314
245 242 240 240 241 241 241 242 243 243 242 244 244 246 249 251 252 255 258 260 262 266 273 280 286 291 294 298 300 303 305 307 308 309 310 311 310 311 311 311 311 312 312
244 242 240 240 240 241 242 243 244 243 241 243 245 246 248 251 253 255 257 259 261 263 268 275 281 287 293 295 297 300 302 304 306 308 310 311 310 309 309 310 310 310 310
243 241 240 240 240 241 242 243 244 244 243 245 245 246 248 251 254 256 256 258 261 263 266 272 277 283 289 294 296 298 301 302 304 307 309 310 309 309 308 309 309 309 309
242 241 240 240 240 241 242 243 243 244 244 245 246 247 248 251 253 256 258 259 261 263 266 269 274 279 285 291 295 297 299 301 303 304 307 309 308 308 308 307 308 308 308
242 241 240 240 240 241 243 243 244 246 245 245 246 247 249 251 253 255 258 261 263 264 266 269 272 277 282 287 293 296 298 300 301 303 305 306 307 307 306 306 307 307 308
242 241 239 238 240 241 243 244 244 247 246 246 248 249 250 252 254 255 258 260 264 265 266 268 271 275 280 285 288 292 296 299 300 301 303 304 305 306 306 305 305 306 307
242 241 239 239 239 241 243 244 244 246 247 246 248 250 251 252 253 255 258 259 261 264 266 267 269 273 277 281 285 288 292 295 297 299 301 302 304 304 305 305 305 305 306
241 242 241 242 240 241 243 244 244 245 247 247 247 250 251 253 254 255 257 259 261 263 265 266 268 271 274 278 283 286 289 291 294 296 299 301 302 303 303 304 305 305 305
242 242 242 241 241 241 243 244 245 245 246 246 247 249 251 253 254 256 257 258 261 263 264 266 267 270 273 276 279 284 288 290 291 293 296 299 301 302 303 304 305 305 305
243 243 242 241 240 241 241 243 246 246 246 246 247 249 251 253 254 256 257 259 260 262 262 264 266 269 271 274 276 280 285 289 290 292 295 297 299 301 302 303 304 305 304
243 243 242 241 241 242 242 242 245 246 246 248 250 251 252 253 255 256 258 259 260 261 262 263 265 268 271 273 274 277 281 285 288 291 293 295 297 299 301 302 303 303 304
243 244 242 242 242 241 242 243 245 246 246 248 250 252 252 253 255 257 259 260 261 262 262 263 265 268 270 272 274 276 279 283 287 290 292 294 295 297 300 301 301 302 303
243 244 244 242 241 241 242 243 245 244 244 247 249 252 253 255 256 257 259 261 262 263 263 264 266 268 270 272 274 275 278 281 285 289 291 293 295 296 298 299 300 301 302
244 245 245 243 242 242 244 245 245 245 246 247 248 251 252 255 257 259 261 262 263 263 264 265 266 268 271 271 272 274 277 279 282 286 290 292 294 295 296 296 298 299 300
245 245 245 244 243 243 244 245 245 246 247 249 250 251 252 254 257 259 261 263 264 264 264 264 265 267 270 271 272 274 277 280 282 284 287 291 292 294 295 295 296 298 299
244 245 245 245 244 244 245 246 245 247 249 251 252 253 253 254 257 260 262 263 264 264 264 264 264 266 269 270 272 274 277 278 280 283 286 289 290 292 293 294 297 298 300
244 245 246 247 246 246 245 245 246 248 250 251 252 254 255 256 258 260 262 263 264 264 264 264 265 266 268 269 271 274 276 278 279 281 285 287 289 290 291 293 297 299 300
243 245 246 246 246 246 247 247 249 250 252 253 254 255 258 260 260 260 262 263 263 263 264 265 264 267 269 271 271 273 276 276 279 281 283 286 288 289 291 293 295 298 301
244 246 247 246 246 247 247 248 249 250 251 253 254 255 257 260 260 259 262 262 263 264 265 265 267 267 270 272 272 273 274 276 279 280 282 284 286 289 290 292 295 297 300
245 247 247 247 247 248 248 249 251 252 252 253 254 256 258 259 260 260 260 259 261 264 266 265 265 267 270 271 271 273 274 276 278 280 281 283 285 289 291 293 294 296 298
Height
5848 5849 5851 5852 5853 5854 5855 5856 5857 5858 5859 5860 5860 5861 5861 5862 5862 5863 5863 5863 5863 5863 5864 5864 5863 5863 5862 5862 5862 5861 5860 5860 5859 5858 5857 5856 5855 5854 5853 5852 5851 5850 5849
5845 5847 5848 5849 5851 5852 5853 5855 5856 5856 5857 5858 5859 5859 5860 5861 5861 5862 5862 5862 5862 5863 5863 5863 5862 5862 5862 5861 5861 5860 5859 5859 5858 5857 5856 5855 5854 5853 5852 5851 5849 5848 5847
5843 5844 5845 5847 5848 5849 5851 5852 5854 5855 5855 5856 5857 5858 5858 5859 5860 5860 5861 5861 5861 5861 5861 5861 5861 5861 5861 5860 5860 5859 5858 5857 5857 5856 5855 5853 5852 5851 5850 5849 5847 5846 5845
5840 5841 5842 5844 5845 5847 5848 5850 5851 5852 5853 5854 5855 5856 5857 5857 5858 5859 5859 5860 5860 5860 5860 5860 5860 5859 5859 5859 5858 5858 5857 5856 5855 5854 5853 5852 5850 5849 5848 5846 5845 5844 5842
5836 5838 5839 5841 5842 5843 5845 5846 5848 5849 5850 5852 5853 5854 5855 5855 5856 5857 5857 5858 5858 5858 5858 5858 5858 5858 5857 5857 5856 5856 5855 5854 5853 5852 5851 5849 5848 5847 5845 5844 5842 5841 5840
5832 5834 5835 5837 5838 5840 5841 5843 5844 5846 5847 5849 5850 5851 5852 5853 5854 5854 5855 5855 5856 5856 5856 5856 5856 5856 5855 5855 5854 5854 5853 5852 5851 5849 5848 5847 5846 5844 5843 5841 5840 5838 5836
5828 5829 5831 5833 5834 5836 5838 5839 5841 5842 5844 5845 5847 5848 5849 5850 5851 5852 5852 5853 5853 5854 5854 5854 5854 5853 5853 5852 5852 5851 5850 5849 5848 5847 5846 5844 5843 5841 5840 5838 5836 5835 5833
5823 5825 5826 5828 5830 5832 5833 5835 5837 5838 5840 5842 5843 5844 5846 5847 5848 5849 5849 5850 5850 5851 5851 5851 5851 5851 5850 5850 5849 5848 5847 5847 5845 5844 5843 5841 5840 5838 5836 5835 5833 5831 5829
5817 5819 5821 5823 5825 5827 5829 5830 5832 5834 5836 5837 5839 5841 5842 5843 5844 5845 5846 5846 5847 5848 5848 5848 5848 5848 5847 5847 5846 5845 5844 5843 5842 5841 5840 5838 5836 5835 5833 5831 5829 5827 5825
5811 5813 5816 5818 5820 5822 5823 5825 5827 5829 5831 5833 5835 5836 5838 5839 5840 5841 5842 5843 5844 5844 5844 5844 5845 5845 5844 5843 5843 5842 5841 5840 5839 5838 5836 5834 5833 5831 5829 5827 5825 5823 5821
5805 5807 5809 5811 5814 5816 5818 5820 5822 5824 5826 5828 5830 5832 5833 5834 5836 5837 5838 5839 5839 5840 5840 5841 5841 5841 5840 5840 5839 5838 5837 5836 5835 5834 5832 5831 5829 5827 5825 5823 5821 5818 5816
5798 5800 5803 5805 5808 5810 5812 5814 5817 5818 5820 5823 5825 5826 5828 5829 5831 5832 5833 5834 5835 5836 5836 5836 5836 5836 5836 5836 5835 5834 5833 5832 5831 5830 5828 5826 5824 5822 5820 5818 5816 5813 5811
5792 5794 5796 5799 5801 5804 5806 5808 5810 5813 5814 5816 5818 5820 5822 5824 5825 5826 5827 5829 5830 5830 5831 5831 5831 5831 5831 5831 5830 5830 5829 5828 5826 5825 5823 5821 5819 5817 5815 5813 5810 5808 5805
5785 5787 5790 5792 5795 5797 5800 5802 5804 5806 5808 5810 5812 5814 5816 5817 5819 5820 5821 5823 5824 5824 5825 5826 5826 5826 5826 5825 5825 5824 5823 5822 5821 5820 5818 5816 5814 5812 5810 5807 5805 5802 5799
5777 5780 5783 5785 5788 5790 5793 5796 5798 5799 5801 5803 5805 5807 5809 5811 5813 5814 5815 5816 5817 5818 5819 5819 5820 5820 5820 5820 5819 5819 5818 5816 5815 5814 5812 5810 5808 5806 5804 5801 5799 5796 5793
5770 5773 5776 5778 5781 5783 5786 5788 5791 5793 5795 5796 5798 5800 5802 5804 5806 5807 5809 5810 5810 5811 5812 5813 5813 5813 5813 5814 5813 5813 5812 5811 5809 5808 5806 5804 5802 5800 5798 5795 5793 5790 5787
5762 5765 5768 5771 5773 5775 5778 5781 5783 5786 5788 5790 5791 5793 5795 5797 5798 5800 5801 5802 5803 5804 5805 5805 5806 5806 5806 5807 5806 5806 5805 5804 5803 5802 5800 5798 5796 5793 5791 5789 5786 5783 5781
5754 5757 5760 5763 5766 5768 5770 5773 5775 5778 5781 5783 5784 5786 5788 5790 5791 5792 5794 5795 5795 5796 5797 5797 5798 5799 5799 5799 5799 5799 5798 5798 5796 5795 5793 5791 5789 5787 5784 5782 5779 5776 5773
5746 5749 5752 5755 5759 5761 5762 5765 5767 5770 5773 5775 5777 5778 5780 5782 5783 5785 5786 5786 5787 5787 5788 5789 5790 5790 5791 5791 5791 5791 5791 5790 5789 5788 5786 5784 5782 5780 5777 5774 5771 5769 5766
5738 5741 5744 5747 5750 5753 5755 5757 5759 5762 5764 5767 5769 5771 5772 5774 5775 5777 5777 5778 5778 5778 5779 5780 5781 5782 5782 5783 5783 5783 5783 5782 5782 5780 5778 5776 5774 5772 5770 5767 5764 5761 5758
5729 5732 5735 5738 5741 5744 5747 5749 5751 5754 5756 5759 5761 5763 5764 5765 5767 5768 5768 5769 5769 5769 5770 5770 5771 5772 5773 5774 5774 5774 5774 5774 5773 5772 5770 5768 5766 5764 5762 5759 5756 5753 5750
5719 5723 5726 5729 5732 5735 5738 5741 5743 5745 5748 5750 5752 5753 5755 5757 5758 5759 5759 5759 5760 5760 5760 5761 5762 5763 5764 5765 5765 5765 5766 5766 5765 5763 5762 5760 5758 5756 5754 5751 5748 5745 5742
5710 5713 5717 5720 5723 5726 5729 5731 5734 5736 5738 5741 5743 5744 5746 5747 5748 5749 5750 5750 5751 5751 5752 5753 5753 5754 5755 5755 5756 5756 5756 5756 5756 5755 5754 5752 5749 5747 5745 5742 5739 5736 5733
5700 5704 5707 5710 5714 5717 5719 5722 5724 5727 5729 5732 5733 5735 5736 5737 5738 5739 5740 5741 5742 5742 5743 5744 5745 5745 5745 5746 5746 5746 5746 5746 5746 5746 5745 5743 5741 5738 5736 5733 5730 5727 5723
5691 5695 5697 5700 5703 5706 5708 5711 5713 5716 5719 5721 5723 5725 5726 5727 5728 5729 5730 5731 5732 5733 5734 5735 5735 5736 5736 5736 5737 5737 5737 5737 5736 5736 5736 5734 5732 5729 5727 5724 5721 5718 5714
5681 5685 5687 5689 5692 5695 5698 5700 5703 5706 5708 5710 5712 5714 5716 5717 5718 5719 5720 5721 5722 5724 5725 5726 5726 5727 5727 5727 5728 5728 5728 5728 5727 5726 5726 5725 5723 5720 5717 5714 5711 5708 5705